Kaw Lake Weather Center

Moon Phase Calendar



Kaw Lake Water Level
Online Cameras

 


      

Current Conditions in McCord
10/28/2021 10:04:44 AM

53°F
Feels Like 51
Clouds
Humidity
55%
Pressure
29.68"
Wind
30 mph (NNW)
Dew Point
38°F
UV Index
1/10 (Low)
Visibility
6 mi

Hourly Forecast

Date & Time Thu, Oct 28
10:00 AM
Thu, Oct 28
11:00 AM
Thu, Oct 28
12:00 PM
Thu, Oct 28
1:00 PM
Thu, Oct 28
2:00 PM
Thu, Oct 28
3:00 PM
Thu, Oct 28
4:00 PM
Thu, Oct 28
5:00 PM
Thu, Oct 28
6:00 PM
Thu, Oct 28
7:00 PM
Thu, Oct 28
8:00 PM
Thu, Oct 28
9:00 PM
Thu, Oct 28
10:00 PM
Thu, Oct 28
11:00 PM
Fri, Oct 29
12:00 AM
Fri, Oct 29
1:00 AM
Fri, Oct 29
2:00 AM
Fri, Oct 29
3:00 AM
Fri, Oct 29
4:00 AM
Fri, Oct 29
5:00 AM
Fri, Oct 29
6:00 AM
Fri, Oct 29
7:00 AM
Fri, Oct 29
8:00 AM
Fri, Oct 29
9:00 AM
Fri, Oct 29
10:00 AM
Fri, Oct 29
11:00 AM
Fri, Oct 29
12:00 PM
Fri, Oct 29
1:00 PM
Fri, Oct 29
2:00 PM
Fri, Oct 29
3:00 PM
Fri, Oct 29
4:00 PM
Fri, Oct 29
5:00 PM
Fri, Oct 29
6:00 PM
Fri, Oct 29
7:00 PM
Fri, Oct 29
8:00 PM
Fri, Oct 29
9:00 PM
Fri, Oct 29
10:00 PM
Fri, Oct 29
11:00 PM
Sat, Oct 30
12:00 AM
Sat, Oct 30
1:00 AM
Sat, Oct 30
2:00 AM
Sat, Oct 30
3:00 AM
Sat, Oct 30
4:00 AM
Sat, Oct 30
5:00 AM
Sat, Oct 30
6:00 AM
Sat, Oct 30
7:00 AM
Sat, Oct 30
8:00 AM
Sat, Oct 30
9:00 AM
Condition
Clouds

Clouds

Clouds

Clouds

Clouds

Clouds

Clouds

Clouds

Clouds

Clouds

Clouds

Clouds

Clouds

Clouds

Clouds

Clouds

Clouds

Clouds

Clouds

Clouds

Clouds

Clear

Clear

Clear

Clear

Clear

Clear

Clear

Clear

Clear

Clear

Clear

Clear

Clear

Clear

Clear

Clear

Clear

Clear

Clear

Clear

Clear

Clear

Clear

Clear

Clear

Clear

Clear
Temperature 53°F54°F55°F57°F59°F61°F61°F60°F58°F58°F57°F56°F56°F55°F55°F54°F52°F52°F51°F50°F50°F49°F48°F49°F52°F54°F56°F59°F60°F61°F61°F61°F58°F53°F51°F50°F49°F48°F47°F46°F45°F45°F44°F44°F43°F43°F43°F46°F
Feels Like 51°F51°F53°F55°F57°F59°F59°F58°F56°F55°F55°F54°F53°F52°F52°F51°F50°F49°F48°F48°F43°F42°F41°F42°F49°F51°F54°F56°F58°F59°F59°F58°F55°F50°F48°F46°F45°F44°F43°F42°F41°F41°F40°F40°F40°F39°F39°F44°F
Cloudiness 98%98%95%93%97%99%99%99%94%95%100%100%100%93%88%84%30%16%13%14%11%9%0%0%0%0%0%0%0%0%0%0%0%0%0%0%0%0%0%0%0%0%0%0%0%0%0%0%
Visibility 6 mi6 mi6 mi6 mi6 mi6 mi6 mi6 mi6 mi6 mi6 mi6 mi6 mi6 mi6 mi6 mi6 mi6 mi6 mi6 mi6 mi6 mi6 mi6 mi6 mi6 mi6 mi6 mi6 mi6 mi6 mi6 mi6 mi6 mi6 mi6 mi6 mi6 mi6 mi6 mi6 mi6 mi6 mi6 mi6 mi6 mi6 mi6 mi
Precipitation 10%6%4%2%0%0%0%0%0%0%0%0%0%0%0%0%0%0%0%0%0%0%0%0%0%0%0%0%0%0%0%0%0%0%0%0%0%0%0%0%0%0%0%0%0%0%0%0%
Humidity 55%54%52%49%47%44%43%44%44%41%42%44%46%45%44%45%47%48%49%50%51%52%53%53%51%47%44%41%39%37%37%39%42%47%51%53%54%56%58%60%62%63%64%65%65%65%65%60%
Dew Point 38°F38°F38°F38°F39°F39°F38°F38°F36°F34°F34°F35°F35°F34°F33°F32°F32°F33°F33°F32°F32°F32°F32°F33°F34°F34°F34°F35°F35°F35°F35°F36°F35°F33°F33°F33°F33°F33°F33°F33°F33°F33°F33°F33°F32°F32°F32°F33°F
Pressure 29.68"29.68"29.68"29.71"29.68"29.71"29.71"29.74"29.74"29.77"29.8"29.83"29.85"29.85"29.85"29.88"29.88"29.91"29.91"29.91"29.94"29.94"29.97"29.97"29.97"29.97"29.97"29.94"29.94"29.91"29.91"29.91"29.91"29.94"29.97"29.97"29.97"29.97"29.97"29.97"29.97"29.97"29.97"29.94"29.97"29.94"29.97"29.97"
Wind Speed 30 mph30.4 mph30.6 mph30.2 mph29.2 mph28.4 mph28.1 mph27.9 mph27 mph26.2 mph26.8 mph26.6 mph26.4 mph26.5 mph26.6 mph26.3 mph26.1 mph25.6 mph24.8 mph24.4 mph23.3 mph21.8 mph21.2 mph21.6 mph22.6 mph24.6 mph24.8 mph23.7 mph22.5 mph21.7 mph20 mph17.2 mph14.5 mph10.2 mph9 mph8.9 mph8.8 mph8.8 mph8.3 mph7.9 mph7.8 mph7.4 mph7 mph6.7 mph6.4 mph5.9 mph5.6 mph4.4 mph
Wind
Direction
332°
NNW
332°
NNW
334°
NNW
336°
NNW
335°
NNW
336°
NNW
337°
NNW
339°
NNW
338°
NNW
338°
NNW
338°
NNW
338°
NNW
339°
NNW
337°
NNW
338°
NNW
338°
NNW
339°
NNW
341°
NNW
339°
NNW
339°
NNW
340°
NNW
341°
NNW
342°
NNW
342°
NNW
342°
NNW
346°
NNW
349°
N
351°
N
352°
N
351°
N
351°
N
348°
NNW
348°
NNW
348°
NNW
346°
NNW
347°
NNW
349°
N
349°
N
349°
N
350°
N
355°
N
354°
N
347°
NNW
339°
NNW
333°
NNW
328°
NNW
320°
NW
313°
NW

Daily Forecast

Date High Low Precip. Humidity
Today
Oct 28

Rain
61 °F
51 °F
100%
49%
Friday
Oct 29

Clear
61 °F
48 °F
0%
41%
Saturday
Oct 30

Clear
66 °F
43 °F
0%
32%
Sunday
Oct 31

Clear
63 °F
48 °F
0%
53%
Monday
Nov 1

Rain
49 °F
45 °F
45%
69%
Tuesday
Nov 2

Rain
51 °F
44 °F
55%
64%
Wednesday
Nov 3

Rain
47 °F
45 °F
90%
88%
Thursday
Nov 4

Clear
58 °F
41 °F
57%
67%
Friday
Nov 5

Clear
65 °F
44 °F
0%
58%
Saturday
Nov 6

Clouds
50 °F
43 °F
0%
48%
Sunday
Nov 7

Rain
42 °F
35 °F
91%
60%
Monday
Nov 8

Clouds
46 °F
40 °F
7%
56%
Tuesday
Nov 9

Rain
50 °F
41 °F
24%
57%
Wednesday
Nov 10

Clear
61 °F
40 °F
0%
62%
Thursday
Nov 11

Clouds
58 °F
47 °F
0%
77%
Friday
Nov 12

Clouds
67 °F
57 °F
0%
63%

Temperature 8-14 Day Outlook



Precipitation 8-14 Day Outlook




Quick Links
Kaw Lake News
Kaw Lake Photos
Kaw Lake Videos




About Us
Contact Us
Site Map
Search Site
Advertise With Us
   
Kaw.LakesOnline.com
THE KAW LAKE WEBSITE

Copyright 2021, Lakes Online
Privacy    |    Legal